COSMOS 2456 (GLONASS)

Satellite information

Favourite Embed

Satellite Type and Status

PAYLOADIN ORBIT

Key statistics

Satellite COSMOS 2456 (GLONASS) at a glance.

Uptime

5684

Days in orbit

Revolutions

≈ 2.1

Per day

Orbit

MEO

Medium Earth Orbit

Inclination

64.8

Latest

Satellite identification and parameters

Extended collection of information and parameters for COSMOS 2456 (GLONASS).

Object identification

Identified? True

Debris? False

Object name: COSMOS 2456 (GLONASS)

International designator: 2009-070A

Object number (NORAD): 36111

Object ID (CCSDS): 36111

Country: COMMONWEALTH OF INDEPENDENT STATES (CIS)

Current information (Y/N): Y

RCS size: LARGE

Orbital parameters

Period: 675.727 minutes

Inclination: 64.8066 deg

SMA: 25507.878 km

Apoapsis: 19139.926 km

Periapsis: 19119.561 km

RAAN: 82.8007 deg

Eccentricy: 0.0003992

Argument of periapsis: 331.8242 deg

Mean anomaly: 7.0921 deg

Mean motion: 2.1310383 rev/day

Mean motion (dot): -0.00000049 rev/day2

B* drag term: 0.0 1/REarth

Two-line elements (TLE)

Creation date: July 6, 2025, 6:05 p.m.

Reference frame: TEME

Reference center: EARTH

Epoch: July 5, 2025, 11:35 p.m. UTC

TLE line 0: 0 COSMOS 2456 (GLONASS)

TLE line 1: 1 36111U 09070A 25186.98323550 -.00000049 00000-0 00000-0 0 9999

TLE line 2: 2 36111 64.8066 82.8007 0003992 331.8242 7.0921 2.13103830121043

Live tracking on map

Real-time ground track for satellite COSMOS 2456 (GLONASS).

In-orbit conjunctions

There are no conjunctions computed for COSMOS 2456 (GLONASS), at the moment. Check back to stay up to date, as we update our databases every day.

Go to all conjunctions

Associated space launch

GLONASS navigation satellites

COSMOS 2456 (GLONASS) was lifted into orbit during the mission ‘Proton-M | Uragan-M 21 to 23’, on board a Proton-M space rocket.

The launch took place on Dec. 14, 2009, 10:38 a.m. from 81/24 (81P).

For more information about the launch, click the button.

Launch to space Proton-M | Uragan-M 21 to 23
Proton-M | Uragan-M 21 to 23

Agency: N/A

Status: Launch Successful

Launch date: Dec. 14, 2009, 10:38 a.m. UTC

Rocket: Proton-M

Launch pad: 81/24 (81P)

Location: Baikonur Cosmodrome, Republic of Kazakhstan

...

Latest news about this satellite

There are no fresh news available about this satellite. Check back as we update our databases every day.


Newsletter sign-up

Weekly statistics, charts and insights to help you stay on top of the space industry.